Weather History for Big Bear City, CA

Change the Weather History Date:

Thursday, March 13, 2014

  Actual Average (KBUO) Record (KBUO)
Temperature  
Mean Temperature 34 °F -  
Max Temperature 44 °F 64 °F 80 °F (1997)
Min Temperature 23 °F 42 °F 37 °F (2001)
Degree Days  
Heating Degree Days 32    
Moisture  
Dew Point 15 °F    
Average Humidity 49    
Maximum Humidity 74    
Minimum Humidity 25    
Precipitation  
Precipitation 0.00 in - - ()
Sea Level Pressure  
Sea Level Pressure 30.06 in    
Wind  
Wind Speed 2 mph (NNE)    
Max Wind Speed 12 mph    
Max Gust Speed 18 mph    
Visibility 10 miles    
Events      
Averages and records for this station are not official NWS values.
T = Trace of Precipitation, MM = Missing Value Source: NWS Daily Summary

Daily Weather History Graph

Daily Weather History Graph

Search for Another Location

Airport:

Trip Planner

Search our weather history database for the weather conditions in past years. The results will help you decide how hot, cold, wet, or windy it might be!

Date:

Astronomy

Mar. 13, 2014 Rise Set
Actual Time 7:00 AM PDT 6:53 PM PDT
Civil Twilight 6:35 AM PDT 7:18 PM PDT
Nautical Twilight 6:06 AM PDT 7:47 PM PDT
Astronomical Twilight 5:37 AM PDT 8:17 PM PDT
Moon 4:28 PM PDT (3/13) 5:04 AM PDT (3/13)
Length of Visible Light 12h 43m
Length of Day
11h 53m
Waxing Gibbous, 92% of the Moon is Illuminated
Mar 13
Waxing Gibbous
Mar 16
Full
Mar 23
Last Quarter
Mar 30
New
Apr 7
First Quarter

Hourly Weather History & Observations

Time (PDT) Temp. Windchill Dew Point Humidity Pressure Visibility Wind Dir Wind Speed Gust Speed Precip Events Conditions
12:15 AM 26.6 °F - 15.8 °F 64% 30.10 in 10.0 mi Calm Calm - N/A   Clear
12:35 AM 26.6 °F - 15.8 °F 64% 30.10 in 10.0 mi Calm Calm - N/A   Clear
12:55 AM 26.6 °F - 15.8 °F 64% 30.09 in 10.0 mi Calm Calm - N/A   Clear
1:15 AM 26.6 °F - 15.8 °F 64% 30.09 in 10.0 mi Calm Calm - N/A   Clear
1:35 AM 24.8 °F - 15.8 °F 69% 30.09 in 10.0 mi Calm Calm - N/A   Clear
1:55 AM 24.8 °F - 15.8 °F 69% 30.09 in 10.0 mi Calm Calm - N/A   Clear
2:15 AM 24.8 °F - 15.8 °F 69% 30.09 in 10.0 mi Calm Calm - N/A   Clear
2:35 AM 24.8 °F - 17.6 °F 74% 30.08 in 10.0 mi Calm Calm - N/A   Clear
2:55 AM 24.8 °F - 17.6 °F 74% 30.08 in 10.0 mi Calm Calm - N/A   Scattered Clouds
3:15 AM 24.8 °F - 17.6 °F 74% 30.07 in 10.0 mi Calm Calm - N/A   Clear
3:35 AM 23.0 °F - 15.8 °F 74% 30.06 in 10.0 mi Calm Calm - N/A   Scattered Clouds
3:55 AM 24.8 °F - 17.6 °F 74% 30.05 in 10.0 mi Calm Calm - N/A   Scattered Clouds
4:15 AM 24.8 °F - 17.6 °F 74% 30.05 in 10.0 mi Calm Calm - N/A   Scattered Clouds
4:35 AM 24.8 °F - 17.6 °F 74% 30.04 in 10.0 mi Calm Calm - N/A   Clear
4:55 AM 24.8 °F - 17.6 °F 74% 30.04 in 10.0 mi Calm Calm - N/A   Scattered Clouds
5:15 AM 24.8 °F - 17.6 °F 74% 30.04 in 10.0 mi Calm Calm - N/A   Scattered Clouds
5:35 AM 24.8 °F - 17.6 °F 74% 30.04 in 10.0 mi Calm Calm - N/A   Overcast
5:55 AM 26.6 °F - 17.6 °F 69% 30.04 in 10.0 mi Calm Calm - N/A   Overcast
6:15 AM 26.6 °F - 17.6 °F 69% 30.04 in 10.0 mi Calm Calm - N/A   Overcast
6:35 AM 26.6 °F - 19.4 °F 74% 30.04 in 10.0 mi Calm Calm - N/A   Overcast
6:55 AM 28.4 °F - 19.4 °F 69% 30.04 in 10.0 mi Calm Calm - N/A   Overcast
7:15 AM 28.4 °F 22.2 °F 21.2 °F 74% 30.04 in 10.0 mi North 5.8 mph - N/A   Mostly Cloudy
7:35 AM 28.4 °F 24.6 °F 19.4 °F 69% 30.03 in 10.0 mi South 3.5 mph - N/A   Scattered Clouds
7:55 AM 28.4 °F - 19.4 °F 69% 30.05 in 10.0 mi Calm Calm - N/A   Scattered Clouds
8:15 AM 30.2 °F - 21.2 °F 69% 30.05 in 10.0 mi Calm Calm - N/A   Scattered Clouds
8:35 AM 30.2 °F - 21.2 °F 69% 30.05 in 10.0 mi Calm Calm - N/A   Scattered Clouds
8:55 AM 32.0 °F - 21.2 °F 64% 30.05 in 10.0 mi Calm Calm - N/A   Mostly Cloudy
9:15 AM 35.6 °F 32.8 °F 17.6 °F 48% 30.05 in 10.0 mi ESE 3.5 mph - N/A   Scattered Clouds
9:35 AM 35.6 °F 32.8 °F 15.8 °F 44% 30.05 in 10.0 mi East 3.5 mph - N/A   Scattered Clouds
9:55 AM 41.0 °F 35.2 °F 15.8 °F 36% 30.05 in 10.0 mi ENE 9.2 mph - N/A   Scattered Clouds
10:15 AM 41.0 °F 37.1 °F 14.0 °F 33% 30.05 in 10.0 mi ENE 5.8 mph - N/A   Scattered Clouds
10:35 AM 41.0 °F 34.3 °F 12.2 °F 31% 30.04 in 10.0 mi ENE 11.5 mph 17.3 mph N/A   Mostly Cloudy
10:55 AM 41.0 °F 35.8 °F 12.2 °F 31% 30.04 in 10.0 mi NE 8.1 mph - N/A   Overcast
11:15 AM 41.0 °F 36.4 °F 14.0 °F 33% 30.04 in 10.0 mi ENE 6.9 mph - N/A   Mostly Cloudy
11:35 AM 42.8 °F 36.6 °F 12.2 °F 29% 30.04 in 10.0 mi ENE 11.5 mph - N/A   Scattered Clouds
11:55 AM 42.8 °F 38.0 °F 12.2 °F 29% 30.04 in 10.0 mi NE 8.1 mph - N/A   Mostly Cloudy
12:15 PM 41.0 °F 36.4 °F 12.2 °F 31% 30.04 in 10.0 mi NE 6.9 mph - N/A   Overcast
12:35 PM 42.8 °F 38.6 °F 12.2 °F 29% 30.04 in 10.0 mi NE 6.9 mph 16.1 mph N/A   Mostly Cloudy
12:55 PM 42.8 °F 38.0 °F 12.2 °F 29% 30.04 in 10.0 mi NNE 8.1 mph - N/A   Mostly Cloudy
1:15 PM 42.8 °F 38.0 °F 12.2 °F 29% 30.04 in 10.0 mi North 8.1 mph - N/A   Mostly Cloudy
1:35 PM 42.8 °F 39.3 °F 14.0 °F 31% 30.04 in 10.0 mi North 5.8 mph - N/A   Overcast
1:55 PM 42.8 °F 37.5 °F 14.0 °F 31% 30.04 in 10.0 mi ENE 9.2 mph - N/A   Overcast
2:15 PM 42.8 °F 38.6 °F 14.0 °F 31% 30.03 in 10.0 mi ENE 6.9 mph - N/A   Mostly Cloudy
2:35 PM 42.8 °F 40.1 °F 14.0 °F 31% 30.03 in 10.0 mi ENE 4.6 mph - N/A   Overcast
2:55 PM 42.8 °F 40.1 °F 14.0 °F 31% 30.03 in 10.0 mi NW 4.6 mph - N/A   Overcast
3:15 PM 42.8 °F - 14.0 °F 31% 30.02 in 10.0 mi Calm Calm - N/A   Mostly Cloudy
3:35 PM 42.8 °F 38.6 °F 14.0 °F 31% 30.02 in 10.0 mi WNW 6.9 mph - N/A   Overcast
3:55 PM 42.8 °F 39.3 °F 12.2 °F 29% 30.02 in 10.0 mi NNE 5.8 mph - N/A   Overcast
4:15 PM 42.8 °F 41.1 °F 12.2 °F 29% 30.02 in 10.0 mi North 3.5 mph - N/A   Overcast
4:35 PM 42.8 °F 38.6 °F 10.4 °F 27% 30.02 in 10.0 mi NNE 6.9 mph - N/A   Overcast
4:55 PM 42.8 °F 38.0 °F 10.4 °F 27% 30.03 in 10.0 mi North 8.1 mph - N/A   Overcast
5:15 PM 42.8 °F 37.5 °F 10.4 °F 27% 30.03 in 10.0 mi NW 9.2 mph - N/A   Overcast
5:35 PM 44.6 °F 39.7 °F 10.4 °F 25% 30.03 in 10.0 mi NNW 9.2 mph - N/A   Mostly Cloudy
5:55 PM 42.8 °F 37.5 °F 12.2 °F 29% 30.04 in 10.0 mi North 9.2 mph 17.3 mph N/A   Overcast
6:15 PM 42.8 °F 38.0 °F 12.2 °F 29% 30.04 in 10.0 mi North 8.1 mph 18.4 mph N/A   Overcast
6:35 PM 42.8 °F 40.1 °F 12.2 °F 29% 30.05 in 10.0 mi NNW 4.6 mph - N/A   Scattered Clouds
6:55 PM 41.0 °F 38.0 °F 12.2 °F 31% 30.05 in 10.0 mi North 4.6 mph - N/A   Clear
7:15 PM 41.0 °F 39.0 °F 12.2 °F 31% 30.05 in 10.0 mi NNW 3.5 mph - N/A   Clear
7:35 PM 41.0 °F 39.0 °F 12.2 °F 31% 30.06 in 10.0 mi North 3.5 mph - N/A   Scattered Clouds
7:55 PM 41.0 °F - 12.2 °F 31% 30.06 in 10.0 mi Calm Calm - N/A   Scattered Clouds
8:15 PM 35.6 °F - 15.8 °F 44% 30.07 in 10.0 mi Calm Calm - N/A   Scattered Clouds
8:35 PM 33.8 °F - 14.0 °F 44% 30.08 in 10.0 mi Calm Calm - N/A   Clear
8:55 PM 32.0 °F - 14.0 °F 48% 30.08 in 10.0 mi Calm Calm - N/A   Clear
9:15 PM 32.0 °F - 14.0 °F 48% 30.08 in 10.0 mi Calm Calm - N/A   Clear
9:35 PM 32.0 °F - 14.0 °F 48% 30.09 in 10.0 mi Calm Calm - N/A   Clear
9:55 PM 30.2 °F - 14.0 °F 51% 30.09 in 10.0 mi Calm Calm - N/A   Clear
10:15 PM 30.2 °F - 14.0 °F 51% 30.09 in 10.0 mi Calm Calm - N/A   Clear
10:35 PM 30.2 °F - 14.0 °F 51% 30.09 in 10.0 mi Calm Calm - N/A   Clear
10:55 PM 30.2 °F - 14.0 °F 51% 30.10 in 10.0 mi Calm Calm - N/A   Clear
11:15 PM 30.2 °F - 14.0 °F 51% 30.10 in 10.0 mi Calm Calm - N/A   Clear
11:35 PM 30.2 °F - 14.0 °F 51% 30.11 in 10.0 mi Calm Calm - N/A   Clear
11:55 PM 28.4 °F - 14.0 °F 55% 30.11 in 10.0 mi Calm Calm - N/A   Clear